Weather History for Eastover, SC

Change the Weather History Date:

Thursday, January 5, 2012

  Actual Average Record
Temperature  
Mean Temperature 45 °F -  
Max Temperature 60 °F 56 °F 75 °F (1998)
Min Temperature 30 °F 34 °F 15 °F (2002)
Degree Days  
Heating Degree Days 20    
Moisture  
Dew Point 24 °F    
Average Humidity 50    
Maximum Humidity 85    
Minimum Humidity 28    
Precipitation  
Precipitation 0.00 in - - ()
Sea Level Pressure  
Sea Level Pressure 30.12 in    
Wind  
Wind Speed 4 mph (West)    
Max Wind Speed 10 mph    
Max Gust Speed -    
Visibility 10 miles    
Events      
Averages and records for this station are not official NWS values.
T = Trace of Precipitation, MM = Missing Value Source: NWS Daily Summary

Daily Weather History Graph

Daily Weather History Graph

Search for Another Location

Airport:

Trip Planner

Search our weather history database for the weather conditions in past years. The results will help you decide how hot, cold, wet, or windy it might be!

Date:

Astronomy

Jan. 05, 2012 Rise Set
Actual Time 7:29 AM EST 5:28 PM EST
Civil Twilight 7:01 AM EST 5:55 PM EST
Nautical Twilight 6:30 AM EST 6:26 PM EST
Astronomical Twilight 6:00 AM EST 6:56 PM EST
Moon 2:30 PM EST (1/5) 4:12 AM EST (1/5)
Length of Visible Light 10h 54m
Length of Day
9h 59m
Waxing Gibbous, 87% of the Moon is Illuminated
Jan 5
Waxing Gibbous
Jan 9
Full
Jan 16
Last Quarter
Jan 23
New
Jan 30
First Quarter

Hourly Weather History & Observations

Time (EST) Temp. Windchill Dew Point Humidity Pressure Visibility Wind Dir Wind Speed Gust Speed Precip Events Conditions
12:55 AM 38.1 °F 32.3 °F 12.0 °F 34% 30.14 in 10.0 mi WSW 8.1 mph - N/A   Clear
1:55 AM 37.2 °F 32.6 °F 13.3 °F 37% 30.14 in 10.0 mi West 5.8 mph - N/A   Clear
2:55 AM 35.6 °F 31.7 °F 13.1 °F 40% 30.12 in 10.0 mi WSW 4.6 mph - N/A   Clear
3:55 AM 34.0 °F 31.0 °F 14.5 °F 45% 30.11 in 10.0 mi WSW 3.5 mph - N/A   Clear
4:55 AM 32.9 °F 29.8 °F 15.4 °F 49% 30.11 in 10.0 mi West 3.5 mph - N/A   Clear
5:55 AM 30.0 °F - 15.6 °F 55% 30.09 in 10.0 mi Calm Calm - N/A   Clear
6:55 AM 30.2 °F - 17.2 °F 59% 30.10 in 10.0 mi Calm Calm - N/A   Partly Cloudy
7:55 AM 30.4 °F - 19.8 °F 65% 30.11 in 10.0 mi Calm Calm - N/A   Partly Cloudy
8:55 AM 38.1 °F - 22.1 °F 53% 30.14 in 10.0 mi Calm Calm - N/A   Scattered Clouds
9:55 AM 44.4 °F - 24.6 °F 46% 30.17 in 10.0 mi Calm Calm - N/A   Partly Cloudy
10:55 AM 51.4 °F - 29.5 °F 43% 30.16 in 10.0 mi Variable 6.9 mph - N/A   Partly Cloudy
11:55 AM 55.4 °F - 29.7 °F 37% 30.14 in 10.0 mi NW 10.4 mph - N/A   Partly Cloudy
12:55 PM 58.3 °F - 28.6 °F 32% 30.11 in 10.0 mi WNW 6.9 mph - N/A   Partly Cloudy
1:55 PM 59.7 °F - 26.8 °F 28% 30.08 in 10.0 mi WNW 9.2 mph - N/A   Partly Cloudy
2:55 PM 60.4 °F - 28.8 °F 30% 30.08 in 10.0 mi WNW 9.2 mph - N/A   Partly Cloudy
3:55 PM 60.8 °F - 28.6 °F 29% 30.09 in 10.0 mi WNW 5.8 mph - N/A   Partly Cloudy
4:55 PM 58.3 °F - 29.8 °F 34% 30.09 in 10.0 mi WSW 4.6 mph - N/A   Clear
5:55 PM 52.5 °F - 30.2 °F 42% 30.10 in 10.0 mi Calm Calm - N/A   Partly Cloudy
6:55 PM 44.6 °F - 31.1 °F 59% 30.11 in 10.0 mi Calm Calm - N/A   Clear
7:55 PM 39.2 °F - 29.8 °F 69% 30.13 in 10.0 mi Calm Calm - N/A   Clear
8:55 PM 37.4 °F - 30.0 °F 75% 30.14 in 10.0 mi Calm Calm - N/A   Clear
9:55 PM 36.7 °F - 29.1 °F 74% 30.14 in 10.0 mi Calm Calm - N/A   Clear
10:55 PM 34.7 °F - 28.6 °F 78% 30.14 in 10.0 mi Calm Calm - N/A   Clear
11:55 PM 32.2 °F - 28.2 °F 85% 30.13 in 10.0 mi Calm Calm - N/A   Clear